| time (UTC) | temp F | wind direction | speed MPH | gust MPH | rain 1hr in | rain 24hr in | rain mn in | humidity % | barometer mb |
| 20260503213230 | 74 | 112 | 5.0 | 8.0 | 0.00 | 0.00 | 0.00 | 15 | 1015.0 |
| 20260503212232 | 73 | 157 | 2.0 | 5.0 | 0.00 | 0.00 | 0.00 | 16 | 1015.3 |
| 20260503211232 | 73 | 113 | 2.0 | 5.0 | 0.00 | 0.00 | 0.00 | 16 | 1015.6 |
| 20260503204231 | 71 | 146 | 4.0 | 7.0 | 0.00 | 0.00 | 0.00 | 18 | 1016.2 |
| 20260503202146 | 70 | 177 | 4.0 | 6.0 | 0.00 | 0.00 | 0.00 | 19 | 1016.6 |
| 20260503201230 | 70 | 157 | 1.0 | 2.0 | 0.00 | 0.00 | 0.00 | 19 | 1017.0 |
| 20260503200232 | 70 | 142 | 3.0 | 5.0 | 0.00 | 0.00 | 0.00 | 19 | 1016.9 |
| 20260503195330 | 69 | 157 | 3.0 | 4.0 | 0.00 | 0.00 | 0.00 | 19 | 1017.0 |
| 20260503195232 | 69 | 148 | 3.0 | 6.0 | 0.00 | 0.00 | 0.00 | 19 | 1017.1 |
| 20260503194249 | 69 | 139 | 2.0 | 4.0 | 0.00 | 0.00 | 0.00 | 20 | 1017.2 |
| 20260503194133 | 69 | 180 | 1.0 | 3.0 | 0.00 | 0.00 | 0.00 | 20 | 1017.3 |
| 20260503192230 | 70 | 160 | 5.0 | 7.0 | 0.00 | 0.00 | 0.00 | 20 | 1017.6 |
| 20260503191233 | 69 | 133 | 2.0 | 4.0 | 0.00 | 0.00 | 0.00 | 20 | 1017.5 |
| 20260503190231 | 69 | 168 | 5.0 | 7.0 | 0.00 | 0.00 | 0.00 | 20 | 1017.8 |
| 20260503185232 | 68 | 137 | 4.0 | 6.0 | 0.00 | 0.00 | 0.00 | 20 | 1018.0 |
| 20260503184331 | 68 | 157 | 3.0 | 5.0 | 0.00 | 0.00 | 0.00 | 21 | 1018.1 |
| 20260503183333 | 67 | 165 | 2.0 | 5.0 | 0.00 | 0.00 | 0.00 | 24 | 1018.3 |
| 20260503183231 | 66 | 172 | 4.0 | 6.0 | 0.00 | 0.00 | 0.00 | 24 | 1018.3 |
| 20260503182233 | 65 | 164 | 3.0 | 6.0 | 0.00 | 0.00 | 0.00 | 24 | 1018.6 |
| 20260503181330 | 65 | 157 | 2.0 | 4.0 | 0.00 | 0.00 | 0.00 | 24 | 1018.7 |
| 20260503180349 | 66 | 151 | 2.0 | 4.0 | 0.00 | 0.00 | 0.00 | 23 | 1018.9 |
| 20260503175431 | 66 | 156 | 3.0 | 6.0 | 0.00 | 0.00 | 0.00 | 25 | 1018.7 |
| 20260503174432 | 66 | 154 | 3.0 | 4.0 | 0.00 | 0.00 | 0.00 | 26 | 1018.9 |
| 20260503173431 | 67 | 159 | 3.0 | 4.0 | 0.00 | 0.00 | 0.00 | 25 | 1018.8 |
| 20260503171330 | 66 | 188 | 2.0 | 4.0 | 0.00 | 0.00 | 0.00 | 25 | 1019.2 |
| 20260503170332 | 66 | 135 | 1.0 | 2.0 | 0.00 | 0.00 | 0.00 | 25 | 1019.3 |
| 20260503150730 | 56 | 135 | 2.0 | 3.0 | 0.00 | 0.00 | 0.00 | 48 | 1020.1 |
| 20260503130632 | 45 | 292 | 0.0 | 2.0 | 0.00 | 0.00 | 0.00 | 62 | 1018.9 |
| 20260503110732 | 45 | 315 | 0.0 | 0.0 | 0.00 | 0.00 | 0.00 | 59 | 1019.4 |
| 20260503090130 | 49 | 315 | 0.0 | 0.0 | 0.00 | 0.00 | 0.00 | 40 | 1019.4 |
| 20260503081231 | 52 | 315 | 1.0 | 3.0 | 0.00 | 0.00 | 0.00 | 34 | 1019.5 |
| 20260503071330 | 53 | 315 | 1.0 | 1.0 | 0.00 | 0.00 | 0.00 | 35 | 1019.6 |
| 20260503070333 | 54 | 315 | 0.0 | 0.0 | 0.00 | 0.00 | 0.00 | 33 | 1019.7 |
| 20260503054612 | 57 | 180 | 0.0 | 0.0 | 0.00 | 0.00 | 0.00 | 29 | 1019.6 |
| 20260503053613 | 57 | 180 | 0.0 | 0.0 | 0.00 | 0.00 | 0.00 | 29 | 1019.4 |
| 20260503051615 | 59 | 210 | 2.0 | 3.0 | 0.00 | 0.00 | 0.00 | 27 | 1019.4 |
| 20260503050612 | 60 | 249 | 1.0 | 3.0 | 0.00 | 0.00 | 0.00 | 26 | 1019.2 |
| 20260503045614 | 61 | 12 | 3.0 | 4.0 | 0.00 | 0.00 | 0.00 | 26 | 1019.2 |
| 20260503044711 | 61 | 343 | 1.0 | 3.0 | 0.00 | 0.00 | 0.00 | 25 | 1019.3 |
| 20260503044614 | 61 | 338 | 0.0 | 3.0 | 0.00 | 0.00 | 0.00 | 25 | 1019.4 |
| 20260503043614 | 61 | 345 | 3.0 | 5.0 | 0.00 | 0.00 | 0.00 | 25 | 1019.2 |
| 20260503041714 | 61 | 356 | 5.0 | 7.0 | 0.00 | 0.00 | 0.00 | 24 | 1019.4 |
| 20260503040728 | 62 | 359 | 4.0 | 6.0 | 0.00 | 0.00 | 0.00 | 25 | 1019.4 |
| 20260503033812 | 62 | 358 | 4.0 | 7.0 | 0.00 | 0.00 | 0.00 | 23 | 1019.0 |
| 20260503032829 | 62 | 15 | 4.0 | 7.0 | 0.00 | 0.00 | 0.00 | 24 | 1018.9 |
| 20260503025014 | 63 | 358 | 4.0 | 6.0 | 0.00 | 0.00 | 0.00 | 24 | 1018.7 |
| 20260503024012 | 63 | 357 | 5.0 | 8.0 | 0.00 | 0.00 | 0.00 | 24 | 1018.6 |
| 20260503021912 | 65 | 10 | 4.0 | 7.0 | 0.00 | 0.00 | 0.00 | 22 | 1018.7 |
| 20260503020913 | 66 | 15 | 5.0 | 8.0 | 0.00 | 0.00 | 0.00 | 21 | 1018.8 |
| 20260503020814 | 66 | 15 | 4.0 | 5.0 | 0.00 | 0.00 | 0.00 | 21 | 1018.7 |
| 20260503014811 | 68 | 180 | 0.0 | 0.0 | 0.00 | 0.00 | 0.00 | 15 | 1018.7 |
| 20260503013812 | 69 | 180 | 0.0 | 0.0 | 0.00 | 0.00 | 0.00 | 15 | 1018.5 |
| 20260503012813 | 69 | 180 | 0.0 | 0.0 | 0.00 | 0.00 | 0.00 | 15 | 1018.5 |
| 20260503010813 | 70 | 180 | 1.0 | 2.0 | 0.00 | 0.00 | 0.00 | 14 | 1018.4 |
| 20260503005812 | 70 | 189 | 2.0 | 3.0 | 0.00 | 0.00 | 0.00 | 15 | 1018.6 |
| 20260503004828 | 71 | 172 | 3.0 | 4.0 | 0.00 | 0.00 | 0.00 | 14 | 1018.5 |
| 20260503003912 | 71 | 172 | 4.0 | 6.0 | 0.00 | 0.00 | 0.00 | 15 | 1018.6 |
| 20260503002828 | 71 | 166 | 4.0 | 6.0 | 0.00 | 0.00 | 0.00 | 14 | 1018.5 |
| 20260503001912 | 72 | 156 | 6.0 | 8.0 | 0.00 | 0.00 | 0.00 | 14 | 1018.7 |
| 20260502235912 | 72 | 157 | 4.0 | 5.0 | 0.00 | 0.00 | 0.00 | 13 | 1018.6 |
| 20260502235011 | 72 | 157 | 3.0 | 5.0 | 0.00 | 0.00 | 0.00 | 14 | 1018.7 |
| 20260502234015 | 72 | 176 | 5.0 | 8.0 | 0.00 | 0.00 | 0.00 | 13 | 1018.8 |
| 20260502233915 | 72 | 158 | 3.0 | 5.0 | 0.00 | 0.00 | 0.00 | 14 | 1018.8 |
| 20260502232913 | 72 | 167 | 5.0 | 7.0 | 0.00 | 0.00 | 0.00 | 13 | 1018.9 |
| 20260502232813 | 72 | 163 | 6.0 | 8.0 | 0.00 | 0.00 | 0.00 | 14 | 1018.9 |
| 20260502231812 | 72 | 146 | 4.0 | 7.0 | 0.00 | 0.00 | 0.00 | 15 | 1019.0 |
| 20260502230813 | 71 | 158 | 6.0 | 9.0 | 0.00 | 0.00 | 0.00 | 14 | 1019.2 |
| 20260502225833 | 72 | 150 | 3.0 | 5.0 | 0.00 | 0.00 | 0.00 | 14 | 1019.2 |
| 20260502224813 | 72 | 157 | 4.0 | 7.0 | 0.00 | 0.00 | 0.00 | 14 | 1019.4 |
| 20260502223912 | 72 | 160 | 5.0 | 8.0 | 0.00 | 0.00 | 0.00 | 14 | 1019.6 |
| 20260502222913 | 71 | 167 | 5.0 | 9.0 | 0.00 | 0.00 | 0.00 | 15 | 1019.8 |
| 20260502220929 | 71 | 158 | 4.0 | 7.0 | 0.00 | 0.00 | 0.00 | 14 | 1020.0 |
| 20260502215912 | 71 | 170 | 7.0 | 10.0 | 0.00 | 0.00 | 0.00 | 15 | 1020.4 |
| 20260502214812 | 71 | 142 | 5.0 | 8.0 | 0.00 | 0.00 | 0.00 | 14 | 1020.6 |